Stations météo

réclame
Mon MeteoGroup
St. James's Park, Grande-Bretagne (3770): Température de l'air & dewpoint: 09.11.2018 23:00:00 - 15.11.2018 23:00:00 (GMT)St. James's Park, Grande-Bretagne (3770): Température de l'air -20cm & Température de l'air -100cm: 09.11.2018 23:00:00 - 15.11.2018 23:00:00 (GMT)St. James's Park, Grande-Bretagne (3770): Quantités de précipitations: 09.11.2018 23:00:00 - 15.11.2018 23:00:00 (GMT)
Date & Time tt [°C] td [°C] tt -20cm [°C] tt -100cm [°C] rr [mm]
15.11.2018 23:00:00 11,2 10,4 - - 0,0
15.11.2018 22:00:00 11,1 10,1 - - 0,0
15.11.2018 21:00:00 11,2 10,1 - - 0,0
15.11.2018 20:00:00 11,7 10,4 - - 0,0
15.11.2018 19:00:00 12,6 11,0 - - 0,0
15.11.2018 18:00:00 12,9 11,1 - - 0,0
15.11.2018 17:00:00 13,6 11,5 - - 0,0
15.11.2018 16:00:00 14,4 12,0 - - 0,0
15.11.2018 15:00:00 15,0 12,3 - - 0,0
15.11.2018 14:00:00 14,9 12,4 - - 0,0
15.11.2018 13:00:00 14,4 12,1 - - 0,0
15.11.2018 12:00:00 14,0 11,8 - - 0,0
15.11.2018 11:00:00 13,9 11,5 - - 0,0
15.11.2018 10:00:00 13,5 10,9 - - 0,0
15.11.2018 09:00:00 12,9 11,3 10,2 12,2 0,0
15.11.2018 08:00:00 12,5 11,3 - - 0,0
15.11.2018 07:00:00 12,5 11,5 - - 0,0
15.11.2018 06:00:00 12,1 11,1 - - 0,0
15.11.2018 05:00:00 12,3 11,5 - - 0,0
15.11.2018 04:00:00 12,0 11,3 - - 0,0
15.11.2018 03:00:00 12,3 11,6 - - 0,0
15.11.2018 02:00:00 12,1 11,8 - - 0,0
15.11.2018 01:00:00 11,2 11,0 - - 0,0
15.11.2018 00:00:00 10,7 10,5 - - 0,0
14.11.2018 23:00:00 9,7 9,4 - - 0,0
14.11.2018 22:00:00 9,3 8,7 - - 0,0
14.11.2018 21:00:00 10,2 9,6 - - 0,0
14.11.2018 20:00:00 9,9 8,3 - - 0,0
14.11.2018 19:00:00 10,7 8,5 - - 0,0
14.11.2018 18:00:00 11,7 7,6 - - 0,0
14.11.2018 17:00:00 11,8 7,6 - - 0,0
14.11.2018 16:00:00 12,8 8,0 - - 0,0
14.11.2018 15:00:00 13,3 7,9 - - 0,0
14.11.2018 14:00:00 13,7 7,5 - - 0,0
14.11.2018 13:00:00 14,0 7,6 - - 0,0
14.11.2018 12:00:00 14,3 8,3 - - 0,0
14.11.2018 11:00:00 14,8 9,1 - - 0,0
14.11.2018 10:00:00 12,9 9,2 - - 0,0
14.11.2018 09:00:00 11,4 9,0 10,0 12,2 0,0
14.11.2018 08:00:00 11,0 8,7 - - 0,0
14.11.2018 07:00:00 11,2 8,4 - - 0,0
14.11.2018 06:00:00 11,0 8,5 - - 0,0
14.11.2018 05:00:00 11,2 9,1 - - 0,0
14.11.2018 04:00:00 11,2 9,3 - - 0,2
14.11.2018 03:00:00 10,8 9,1 - - 0,0
14.11.2018 02:00:00 10,9 8,9 - - 0,0
14.11.2018 01:00:00 10,7 8,9 - - 0,0
14.11.2018 00:00:00 10,3 8,8 - - 0,0
13.11.2018 23:00:00 9,9 8,5 - - 0,0
13.11.2018 22:00:00 10,0 8,4 - - 0,0
13.11.2018 21:00:00 9,9 8,2 - - 0,0
13.11.2018 20:00:00 10,9 8,4 - - 0,0
13.11.2018 19:00:00 11,1 8,4 - - 0,0
13.11.2018 18:00:00 11,1 7,5 - - 0,0
13.11.2018 17:00:00 11,9 6,4 - - 0,0
13.11.2018 16:00:00 11,8 6,5 - - 0,0
13.11.2018 15:00:00 13,0 6,3 - - 0,0
13.11.2018 14:00:00 13,3 6,5 - - 0,0
13.11.2018 13:00:00 12,7 6,7 - - 0,0
13.11.2018 12:00:00 13,7 7,5 - - 0,0
13.11.2018 11:00:00 12,9 7,5 - - 0,0
13.11.2018 10:00:00 10,9 7,6 - - 0,0
13.11.2018 09:00:00 9,8 7,1 10,2 12,4 0,0
13.11.2018 08:00:00 9,0 6,8 - - 0,0
13.11.2018 07:00:00 8,8 6,7 - - 0,0
13.11.2018 06:00:00 8,8 6,9 - - 0,0
13.11.2018 05:00:00 9,0 6,7 - - 0,0
13.11.2018 04:00:00 9,4 6,8 - - 0,0
13.11.2018 03:00:00 8,7 6,4 - - 0,0
13.11.2018 02:00:00 9,8 7,0 - - 0,0
13.11.2018 01:00:00 10,0 7,0 - - 0,0
13.11.2018 00:00:00 10,6 7,8 - - 0,0
12.11.2018 23:00:00 10,8 8,3 - - 0,0
12.11.2018 22:00:00 10,3 8,0 - - 0,0
12.11.2018 21:00:00 10,9 8,3 - - 0,0
12.11.2018 20:00:00 10,6 8,3 - - 0,0
12.11.2018 19:00:00 11,3 8,9 - - 0,0
12.11.2018 18:00:00 11,3 8,9 - - 0,0
12.11.2018 17:00:00 10,9 8,6 - - 0,0
12.11.2018 16:00:00 11,1 8,9 - - 0,0
12.11.2018 15:00:00 11,1 8,9 - - 0,0
12.11.2018 14:00:00 10,6 9,0 - - 5,8
12.11.2018 13:00:00 13,7 8,6 - - 0,0
12.11.2018 12:00:00 14,6 10,7 - - 0,0
12.11.2018 11:00:00 12,7 9,1 - - 0,2
12.11.2018 10:00:00 10,3 7,7 - - 1,0
12.11.2018 09:00:00 11,6 10,5 10,4 12,5 0,0
12.11.2018 08:00:00 11,0 9,9 - - 0,0
12.11.2018 07:00:00 10,6 9,7 - - 0,0
12.11.2018 06:00:00 10,7 10,0 - - 0,0
12.11.2018 05:00:00 10,0 9,7 - - 0,0
12.11.2018 04:00:00 9,4 8,9 - - 0,0
12.11.2018 03:00:00 9,6 8,9 - - 0,2
12.11.2018 02:00:00 9,9 8,9 - - 1,4
12.11.2018 01:00:00 10,3 8,0 - - 0,0
12.11.2018 00:00:00 10,5 8,1 - - 0,0
11.11.2018 23:00:00 10,4 8,3 - - 0,0
11.11.2018 22:00:00 9,6 7,6 - - 0,0
11.11.2018 21:00:00 9,2 7,2 - - 0,0
11.11.2018 20:00:00 9,3 6,7 - - 0,0
11.11.2018 19:00:00 9,8 6,6 - - 0,0
11.11.2018 18:00:00 10,0 6,3 - - 0,0
11.11.2018 17:00:00 11,5 6,4 - - 0,0
11.11.2018 16:00:00 12,0 6,7 - - 0,0
11.11.2018 15:00:00 12,5 7,2 - - 0,0
11.11.2018 14:00:00 12,9 6,6 - - 0,0
11.11.2018 13:00:00 13,2 6,7 - - 0,0
11.11.2018 12:00:00 13,7 6,8 - - 0,0
11.11.2018 11:00:00 13,0 8,2 - - 0,0
11.11.2018 10:00:00 11,6 8,0 - - 0,0
11.11.2018 09:00:00 10,8 8,4 10,7 12,5 0,8
11.11.2018 08:00:00 10,3 9,5 - - 0,2
11.11.2018 07:00:00 10,0 8,4 - - 2,2
11.11.2018 06:00:00 10,4 9,5 - - 1,8
11.11.2018 05:00:00 9,8 9,2 - - 0,0
11.11.2018 04:00:00 8,8 8,2 - - 0,0
11.11.2018 03:00:00 8,8 8,1 - - 0,2
11.11.2018 02:00:00 9,2 8,1 - - 0,0
11.11.2018 01:00:00 10,1 9,0 - - 1,0
11.11.2018 00:00:00 10,1 9,5 - - 0,0
10.11.2018 23:00:00 10,1 9,4 - - 0,2
10.11.2018 22:00:00 10,2 9,5 - - 0,8
10.11.2018 21:00:00 10,1 9,4 - - 2,8
10.11.2018 20:00:00 9,8 9,3 - - 1,4
10.11.2018 19:00:00 9,6 8,9 - - 5,4
10.11.2018 18:00:00 9,7 8,9 - - 2,6
10.11.2018 17:00:00 9,7 8,8 - - 3,6
10.11.2018 16:00:00 10,0 8,4 - - 9,0
10.11.2018 15:00:00 13,1 9,2 - - 0,2
10.11.2018 14:00:00 14,0 8,7 - - 0,0
10.11.2018 13:00:00 14,3 9,5 - - 0,0
10.11.2018 12:00:00 14,8 11,3 - - 0,0
10.11.2018 11:00:00 13,5 11,2 - - 0,0
10.11.2018 10:00:00 10,5 9,8 - - 0,0
10.11.2018 09:00:00 9,9 9,2 10,7 12,7 0,0
10.11.2018 08:00:00 9,5 9,0 - - 0,0
10.11.2018 07:00:00 8,9 8,3 - - 0,0
10.11.2018 06:00:00 9,2 8,1 - - 0,0
10.11.2018 05:00:00 10,2 8,7 - - 0,2
10.11.2018 04:00:00 11,3 10,1 - - 0,6
10.11.2018 03:00:00 11,8 11,0 - - 3,6
10.11.2018 02:00:00 11,9 10,9 - - 0,6
10.11.2018 01:00:00 11,5 10,5 - - 0,6
10.11.2018 00:00:00 11,2 10,1 - - 1,4
09.11.2018 23:00:00 11,1 9,6 - - 1,4

tt = Température de l'air
td = dewpoint
tt -20cm = Température de l'air -20cm
tt -100cm = Température de l'air -100cm
rr = Quantités de précipitations

stations d'obs. à proximité